THY5656 LGSR-LGIO

Flight info

Callsign THY5656
Flight time 1h 6m
Altitude 32000
Route IRBEG DCT KRO DCT IXONI DCT ROTSA DCT PARAX
Aircraft B738/M-SDE2E3FGHIRWXY/LB1

Departure

Time 2026-04-22 17:17
Airport Santorini International Airport (LGSR)

Arrival

Time 2026-04-22 18:24
Airport Ioannina King Pyrrhus National Airport (LGIO)
Time Latitude Longitude Altitude Speed Heading
2026-04-22 17:08 36.40183 25.47456 88 ft 0 kts 249°
2026-04-22 17:10 36.40184 25.47460 88 ft 0 kts 249°
2026-04-22 17:10 36.40185 25.47463 88 ft 0 kts 249°
2026-04-22 17:10 36.40186 25.47467 88 ft 0 kts 249°
2026-04-22 17:11 36.40188 25.47471 88 ft 0 kts 249°
2026-04-22 17:11 36.40189 25.47474 89 ft 0 kts 249°
2026-04-22 17:11 36.40189 25.47478 89 ft 0 kts 227°
2026-04-22 17:11 36.40191 25.47482 89 ft 0 kts 196°
2026-04-22 17:12 36.40194 25.47484 88 ft 0 kts 165°
2026-04-22 17:12 36.40200 25.47481 92 ft 0 kts 117°
2026-04-22 17:12 36.40199 25.47483 92 ft 0 kts 117°
2026-04-22 17:12 36.40198 25.47486 92 ft 1 kts 117°
2026-04-22 17:13 36.40195 25.47492 92 ft 1 kts 117°
2026-04-22 17:13 36.40191 25.47500 88 ft 1 kts 124°
2026-04-22 17:13 36.40184 25.47511 88 ft 2 kts 131°
2026-04-22 17:13 36.40170 25.47524 89 ft 5 kts 146°
2026-04-22 17:14 36.40134 25.47581 90 ft 11 kts 106°
2026-04-22 17:14 36.40085 25.47665 86 ft 14 kts 156°
2026-04-22 17:14 36.39986 25.47709 88 ft 16 kts 158°
2026-04-22 17:14 36.39876 25.47770 86 ft 19 kts 156°
2026-04-22 17:15 36.39791 25.47810 86 ft 21 kts 159°
2026-04-22 17:15 36.39589 25.47903 74 ft 26 kts 160°
2026-04-22 17:15 36.39412 25.47984 66 ft 28 kts 160°
2026-04-22 17:15 36.39232 25.48070 60 ft 27 kts 158°
2026-04-22 17:16 36.39091 25.48138 55 ft 19 kts 159°
2026-04-22 17:16 36.39006 25.48227 55 ft 16 kts 84°
2026-04-22 17:16 36.39070 25.48317 54 ft 15 kts
2026-04-22 17:16 36.39171 25.48269 59 ft 27 kts 337°
2026-04-22 17:17 36.39621 25.48052 71 ft 109 kts 339°
2026-04-22 17:17 36.40526 25.47635 183 ft 164 kts 340°
2026-04-22 17:17 36.41686 25.47182 803 ft 187 kts 343°
2026-04-22 17:17 36.43019 25.46954 1620 ft 199 kts 356°
2026-04-22 17:18 36.44382 25.46907 2578 ft 198 kts 352°
2026-04-22 17:18 36.45787 25.46776 3155 ft 203 kts 351°
2026-04-22 17:18 36.47211 25.46642 3440 ft 212 kts 353°
2026-04-22 17:18 36.48769 25.46553 3633 ft 235 kts 353°
2026-04-22 17:19 36.52219 25.46301 4447 ft 265 kts 353°
2026-04-22 17:19 36.55955 25.45930 6077 ft 273 kts 352°
2026-04-22 17:20 36.59769 25.45490 7768 ft 277 kts 351°
2026-04-22 17:20 36.63641 25.45013 9482 ft 282 kts 350°
2026-04-22 17:21 36.65604 25.44766 10281 ft 286 kts 350°
2026-04-22 17:21 36.69857 25.44217 10754 ft 333 kts 350°
2026-04-22 17:22 36.74765 25.43590 11220 ft 371 kts 351°
2026-04-22 17:22 36.77352 25.43262 11826 ft 376 kts 350°
2026-04-22 17:22 36.82406 25.41836 13232 ft 372 kts 326°
2026-04-22 17:23 36.84599 25.40126 13969 ft 373 kts 324°
2026-04-22 17:23 36.88998 25.36656 15310 ft 379 kts 324°
2026-04-22 17:23 36.91239 25.34898 16020 ft 381 kts 324°
2026-04-22 17:24 36.93496 25.33133 16706 ft 384 kts 324°
2026-04-22 17:24 36.95771 25.31360 17417 ft 386 kts 324°
2026-04-22 17:24 36.98059 25.29577 18078 ft 389 kts 324°
2026-04-22 17:24 37.00368 25.27780 18657 ft 393 kts 324°
2026-04-22 17:25 37.02694 25.25967 19199 ft 396 kts 324°
2026-04-22 17:25 37.05043 25.24138 19758 ft 399 kts 324°
2026-04-22 17:25 37.07404 25.22298 20297 ft 401 kts 324°
2026-04-22 17:25 37.09749 25.20468 20819 ft 404 kts 324°
2026-04-22 17:26 37.12148 25.18596 21339 ft 407 kts 324°
2026-04-22 17:26 37.14561 25.16711 21834 ft 410 kts 324°
2026-04-22 17:26 37.16994 25.14810 22337 ft 413 kts 324°
2026-04-22 17:26 37.19439 25.12896 22819 ft 416 kts 324°
2026-04-22 17:27 37.21905 25.10965 23284 ft 419 kts 324°
2026-04-22 17:27 37.24382 25.09025 23702 ft 422 kts 324°
2026-04-22 17:27 37.26874 25.07070 24117 ft 423 kts 324°
2026-04-22 17:27 37.29372 25.05111 24612 ft 422 kts 324°
2026-04-22 17:28 37.31828 25.03182 25035 ft 423 kts 324°
2026-04-22 17:28 37.34336 25.01211 25390 ft 426 kts 324°
2026-04-22 17:28 37.36855 24.99228 25753 ft 428 kts 324°
2026-04-22 17:28 37.39375 24.97244 26131 ft 429 kts 324°
2026-04-22 17:29 37.41911 24.95245 26474 ft 431 kts 324°
2026-04-22 17:29 37.44459 24.93236 26811 ft 433 kts 324°
2026-04-22 17:29 37.47015 24.91218 27180 ft 434 kts 323°
2026-04-22 17:29 37.49534 24.89229 27686 ft 432 kts 323°
2026-04-22 17:30 37.52061 24.87233 28268 ft 428 kts 323°
2026-04-22 17:30 37.54575 24.85247 28872 ft 424 kts 323°
2026-04-22 17:30 37.57067 24.83275 29441 ft 421 kts 323°
2026-04-22 17:30 37.59546 24.81310 29922 ft 420 kts 323°
2026-04-22 17:31 37.62018 24.79349 30313 ft 420 kts 323°
2026-04-22 17:31 37.64487 24.77388 30723 ft 418 kts 323°
2026-04-22 17:31 37.66944 24.75437 31177 ft 416 kts 323°
2026-04-22 17:31 37.69379 24.73501 31606 ft 414 kts 323°
2026-04-22 17:32 37.71780 24.71590 31958 ft 413 kts 323°
2026-04-22 17:32 37.74223 24.69643 31948 ft 416 kts 323°
2026-04-22 17:32 37.79095 24.65759 31973 ft 412 kts 323°
2026-04-22 17:33 37.83931 24.61897 31986 ft 410 kts 323°
2026-04-22 17:33 37.88751 24.58041 31977 ft 409 kts 323°
2026-04-22 17:34 37.93521 24.54221 31986 ft 408 kts 323°
2026-04-22 17:34 37.97855 24.49768 31982 ft 397 kts 304°
2026-04-22 17:35 38.00364 24.43600 31978 ft 396 kts 284°
2026-04-22 17:35 38.01409 24.36724 31992 ft 398 kts 281°
2026-04-22 17:36 38.02401 24.29838 31992 ft 400 kts 282°
2026-04-22 17:36 38.03421 24.22886 31979 ft 402 kts 282°
2026-04-22 17:37 38.04456 24.15909 31986 ft 403 kts 282°
2026-04-22 17:37 38.05494 24.08922 31984 ft 403 kts 282°
2026-04-22 17:38 38.06528 24.01940 31986 ft 402 kts 282°
2026-04-22 17:38 38.07551 23.95011 31970 ft 402 kts 282°
2026-04-22 17:39 38.08572 23.88057 31976 ft 400 kts 282°
2026-04-22 17:40 38.10096 23.77619 31957 ft 401 kts 282°
2026-04-22 17:40 38.11109 23.70649 31937 ft 401 kts 282°
2026-04-22 17:41 38.12108 23.63743 31943 ft 400 kts 282°
2026-04-22 17:41 38.13107 23.56807 31952 ft 399 kts 282°
2026-04-22 17:42 38.14102 23.49865 31944 ft 399 kts 282°
2026-04-22 17:42 38.15093 23.42925 31988 ft 400 kts 282°
2026-04-22 17:43 38.16073 23.36024 31977 ft 399 kts 282°
2026-04-22 17:43 38.17055 23.29087 31975 ft 399 kts 282°
2026-04-22 17:44 38.18032 23.22149 31987 ft 399 kts 282°
2026-04-22 17:44 38.19007 23.15205 31978 ft 399 kts 282°
2026-04-22 17:45 38.19976 23.08262 31938 ft 398 kts 282°
2026-04-22 17:45 38.20929 23.01404 31991 ft 396 kts 282°
2026-04-22 17:46 38.21887 22.94504 31979 ft 397 kts 282°
2026-04-22 17:46 38.22838 22.87587 31974 ft 398 kts 282°
2026-04-22 17:47 38.23787 22.80665 31984 ft 397 kts 282°
2026-04-22 17:47 38.24728 22.73771 31984 ft 398 kts 282°
2026-04-22 17:48 38.25517 22.67960 31979 ft 398 kts 282°
2026-04-22 17:48 38.26608 22.59897 31974 ft 398 kts 282°
2026-04-22 17:49 38.27542 22.52964 31971 ft 397 kts 282°
2026-04-22 17:49 38.28470 22.46039 31971 ft 397 kts 282°
2026-04-22 17:50 38.29387 22.39165 31961 ft 396 kts 282°
2026-04-22 17:50 38.30305 22.32254 31957 ft 396 kts 282°
2026-04-22 17:51 38.31236 22.25356 31956 ft 394 kts 284°
2026-04-22 17:51 38.33037 22.18805 31963 ft 392 kts 295°
2026-04-22 17:52 38.35355 22.12517 31965 ft 393 kts 295°
2026-04-22 17:52 38.37643 22.06251 31956 ft 392 kts 295°
2026-04-22 17:53 38.39929 21.99941 31955 ft 392 kts 295°
2026-04-22 17:53 38.42205 21.93631 31965 ft 391 kts 295°
2026-04-22 17:54 38.44460 21.87364 31946 ft 391 kts 294°
2026-04-22 17:54 38.46715 21.81082 31966 ft 389 kts 295°
2026-04-22 17:55 38.48589 21.75851 31953 ft 391 kts 295°
2026-04-22 17:55 38.51233 21.68458 31955 ft 393 kts 295°
2026-04-22 17:56 38.53500 21.62103 31957 ft 393 kts 294°
2026-04-22 17:56 38.55748 21.55788 31958 ft 394 kts 294°
2026-04-22 17:57 38.58012 21.49414 31961 ft 394 kts 294°
2026-04-22 17:57 38.60271 21.43042 31960 ft 394 kts 294°
2026-04-22 17:58 38.62527 21.36662 31955 ft 394 kts 294°
2026-04-22 17:58 38.64756 21.30348 31939 ft 383 kts 294°
2026-04-22 17:58 38.65823 21.27318 31937 ft 365 kts 294°
2026-04-22 17:59 38.66848 21.24406 31880 ft 356 kts 294°
2026-04-22 17:59 38.67860 21.21529 31585 ft 350 kts 294°
2026-04-22 17:59 38.68849 21.18714 31170 ft 344 kts 294°
2026-04-22 17:59 38.69820 21.15947 30759 ft 340 kts 294°
2026-04-22 18:00 38.70461 21.14119 30474 ft 338 kts 294°
2026-04-22 18:00 38.71737 21.10482 29864 ft 333 kts 294°
2026-04-22 18:00 38.72664 21.07831 29448 ft 328 kts 294°
2026-04-22 18:00 38.73591 21.05181 29036 ft 323 kts 294°
2026-04-22 18:01 38.74505 21.02565 28596 ft 321 kts 294°
2026-04-22 18:01 38.75409 20.99975 28175 ft 316 kts 294°
2026-04-22 18:01 38.76299 20.97423 27798 ft 312 kts 294°
2026-04-22 18:01 38.77181 20.94892 27368 ft 310 kts 294°
2026-04-22 18:02 38.78057 20.92376 26942 ft 308 kts 293°
2026-04-22 18:02 38.78921 20.89895 26549 ft 311 kts 293°
2026-04-22 18:02 38.79815 20.87322 26131 ft 321 kts 293°
2026-04-22 18:02 38.80729 20.84686 25698 ft 324 kts 293°
2026-04-22 18:03 38.81642 20.82055 25270 ft 321 kts 293°
2026-04-22 18:03 38.82545 20.79451 24856 ft 319 kts 293°
2026-04-22 18:03 38.83442 20.76862 24435 ft 317 kts 292°
2026-04-22 18:03 38.84332 20.74291 24033 ft 314 kts 292°
2026-04-22 18:04 38.85215 20.71735 23622 ft 312 kts 292°
2026-04-22 18:04 38.86087 20.69232 23159 ft 311 kts 295°
2026-04-22 18:04 38.87349 20.66984 22695 ft 314 kts 311°
2026-04-22 18:04 38.89043 20.65211 22174 ft 319 kts 322°
2026-04-22 18:05 38.91078 20.64014 21752 ft 325 kts 334°
2026-04-22 18:05 38.93246 20.63183 21329 ft 325 kts 337°
2026-04-22 18:05 38.95427 20.62438 20920 ft 323 kts 338°
2026-04-22 18:05 38.97590 20.61715 20546 ft 320 kts 338°
2026-04-22 18:06 38.99740 20.60990 20150 ft 318 kts 338°
2026-04-22 18:06 39.01842 20.60271 19782 ft 315 kts 338°
2026-04-22 18:06 39.03955 20.59540 19413 ft 313 kts 338°
2026-04-22 18:06 39.06050 20.58808 19052 ft 311 kts 338°
2026-04-22 18:07 39.07429 20.58323 18798 ft 310 kts 338°
2026-04-22 18:07 39.10201 20.57345 18310 ft 308 kts 338°
2026-04-22 18:07 39.12264 20.56615 17903 ft 306 kts 338°
2026-04-22 18:07 39.14310 20.55890 17494 ft 304 kts 338°
2026-04-22 18:08 39.16343 20.55169 17111 ft 302 kts 338°
2026-04-22 18:08 39.18337 20.54461 16750 ft 300 kts 338°
2026-04-22 18:08 39.20351 20.53745 16377 ft 298 kts 338°
2026-04-22 18:08 39.22346 20.53036 16018 ft 296 kts 338°
2026-04-22 18:09 39.24329 20.52330 15657 ft 295 kts 338°
2026-04-22 18:09 39.26303 20.51628 15299 ft 293 kts 338°
2026-04-22 18:09 39.28261 20.50929 14986 ft 292 kts 338°
2026-04-22 18:09 39.30193 20.50241 14643 ft 294 kts 338°
2026-04-22 18:10 39.32157 20.49540 14503 ft 289 kts 338°
2026-04-22 18:10 39.34059 20.48864 14176 ft 283 kts 338°
2026-04-22 18:10 39.35936 20.48193 13939 ft 276 kts 338°
2026-04-22 18:10 39.37780 20.47533 13663 ft 274 kts 338°
2026-04-22 18:11 39.39617 20.46875 13330 ft 274 kts 338°
2026-04-22 18:11 39.41452 20.46219 13017 ft 272 kts 338°
2026-04-22 18:11 39.43245 20.45577 12726 ft 270 kts 338°
2026-04-22 18:11 39.45056 20.44929 12422 ft 269 kts 338°
2026-04-22 18:12 39.46855 20.44284 12091 ft 269 kts 338°
2026-04-22 18:12 39.48658 20.43657 11678 ft 271 kts 342°
2026-04-22 18:12 39.49905 20.43546 11516 ft 275 kts 359°
2026-04-22 18:12 39.52302 20.44919 11110 ft 296 kts 37°
2026-04-22 18:13 39.53490 20.47139 10834 ft 308 kts 66°
2026-04-22 18:13 39.53691 20.49885 10654 ft 308 kts 100°
2026-04-22 18:13 39.53091 20.52476 10569 ft 292 kts 110°
2026-04-22 18:13 39.52430 20.54866 10360 ft 280 kts 110°
2026-04-22 18:14 39.51775 20.57207 10101 ft 274 kts 110°
2026-04-22 18:14 39.51131 20.59520 9775 ft 274 kts 110°
2026-04-22 18:14 39.50497 20.61832 9624 ft 269 kts 110°
2026-04-22 18:14 39.49880 20.64101 9391 ft 267 kts 110°
2026-04-22 18:15 39.49274 20.66349 9129 ft 262 kts 110°
2026-04-22 18:15 39.48677 20.68568 8768 ft 260 kts 109°
2026-04-22 18:15 39.48086 20.70773 8340 ft 259 kts 109°
2026-04-22 18:15 39.47505 20.72938 7939 ft 257 kts 109°
2026-04-22 18:16 39.46923 20.75109 7589 ft 253 kts 109°
2026-04-22 18:16 39.46354 20.77236 7261 ft 249 kts 109°
2026-04-22 18:16 39.45790 20.79339 6893 ft 246 kts 109°
2026-04-22 18:16 39.45231 20.81422 6524 ft 244 kts 109°
2026-04-22 18:17 39.44671 20.83503 6119 ft 243 kts 109°
2026-04-22 18:17 39.44245 20.85610 5647 ft 244 kts 89°
2026-04-22 18:17 39.44668 20.87616 5590 ft 225 kts 54°
2026-04-22 18:17 39.45691 20.89035 5400 ft 211 kts 33°
2026-04-22 18:18 39.46928 20.89968 5130 ft 206 kts 25°
2026-04-22 18:18 39.48183 20.90852 4920 ft 204 kts 25°
2026-04-22 18:18 39.49426 20.91709 4764 ft 200 kts 20°
2026-04-22 18:18 39.50769 20.92112 4650 ft 199 kts
2026-04-22 18:19 39.52142 20.92391 4559 ft 201 kts
2026-04-22 18:19 39.53535 20.92697 4454 ft 204 kts
2026-04-22 18:19 39.54942 20.92911 4339 ft 203 kts 359°
2026-04-22 18:19 39.56335 20.92896 4214 ft 197 kts 356°
2026-04-22 18:20 39.57696 20.92865 4189 ft 199 kts 358°
2026-04-22 18:20 39.59063 20.92751 4159 ft 194 kts 344°
2026-04-22 18:20 39.60181 20.91932 3963 ft 179 kts 320°
2026-04-22 18:20 39.61123 20.90989 3707 ft 166 kts 320°
2026-04-22 18:21 39.61993 20.90105 3458 ft 152 kts 320°
2026-04-22 18:21 39.62815 20.89265 3251 ft 150 kts 320°
2026-04-22 18:21 39.63632 20.88428 3036 ft 149 kts 321°
2026-04-22 18:21 39.64433 20.87610 2837 ft 148 kts 321°
2026-04-22 18:22 39.65243 20.86774 2600 ft 149 kts 321°
2026-04-22 18:22 39.66049 20.85937 2402 ft 147 kts 321°
2026-04-22 18:22 39.66860 20.85113 2167 ft 148 kts 321°
2026-04-22 18:22 39.67652 20.84304 1963 ft 141 kts 320°
2026-04-22 18:23 39.68414 20.83544 1732 ft 136 kts 318°
2026-04-22 18:23 39.69124 20.82801 1570 ft 125 kts 320°
2026-04-22 18:23 39.69672 20.82247 1565 ft 60 kts 322°
2026-04-22 18:24 39.69848 20.81885 1564 ft 17 kts 210°
2026-04-22 18:24 39.69745 20.81917 1564 ft 16 kts 144°
2026-04-22 18:24 39.69576 20.82088 1564 ft 15 kts 141°
2026-04-22 18:25 39.69498 20.82170 1564 ft 14 kts 140°
2026-04-22 18:25 39.69424 20.82251 1564 ft 14 kts 137°
2026-04-22 18:25 39.69355 20.82331 1564 ft 13 kts 142°
2026-04-22 18:26 39.69323 20.82321 1564 ft 0 kts 217°